Gunnison, CO

10:27 AM MST on December 12, 2019 (GMT -0700)
Gunnison County

Weather History for KGUC - October, 2019

Change the Weather History Date:

Tuesday, October 22, 2019

  Actual Average Record
Temperature  
Mean Temperature 32 °F -  
Max Temperature 53 °F 52 °F 73 °F (2003)
Min Temperature 10 °F 21 °F 6 °F (1996)
Degree Days  
Heating Degree Days 34    
Moisture  
Dew Point 19 °F    
Average Humidity 58    
Maximum Humidity 88    
Minimum Humidity 34    
Precipitation  
Precipitation 0.00 in - - ()
Sea Level Pressure  
Sea Level Pressure 30.37 in    
Wind  
Wind Speed 3 mph ()    
Max Wind Speed 13 mph    
Max Gust Speed 21 mph    
Visibility 10.0 miles    
Events      
Averages and records for this station are not official NWS values.
T = Trace of Precipitation, MM = Missing Value Source: Averaged Metar Reports

Daily Weather History Graph

Daily Weather History Graph

Search for Another Location

Airport or City:

Astronomy

Oct. 22, 2019 Rise Set
Actual Time 7:23 AM MDT 6:20 PM MDT
Civil Twilight 6:56 AM MDT 6:47 PM MDT
Nautical Twilight 6:25 AM MDT 7:18 PM MDT
Astronomical Twilight 5:54 AM MDT 7:48 PM MDT
Moon 12:42 AM MDT (10/22) 3:26 PM MDT (10/22)
Length of Visible Light 11h 50m
Length of Day
10h 56m
Last Quarter, 36% of the Moon is Illuminated
Oct 22
Last Quarter
Oct 27
New
Nov 4
First Quarter
Nov 12
Full
Nov 19
Last Quarter

Hourly Weather History & Observations

Time (MDT) Temp. Windchill Dew Point Humidity Pressure Visibility Wind Dir Wind Speed Gust Speed Precip Events Conditions
12:56 AM 19.9 °F - 16.0 °F 85% 30.41 in 10.0 mi Calm Calm - N/A   Clear
1:56 AM 19.9 °F - 15.1 °F 81% 30.42 in 10.0 mi Calm Calm - N/A   Clear
2:56 AM 18.0 °F - 14.0 °F 84% 30.44 in 10.0 mi Calm Calm - N/A   Clear
3:56 AM 15.1 °F - 12.0 °F 88% 30.45 in 10.0 mi Calm Calm - N/A   Clear
4:56 AM 15.1 °F - 12.0 °F 88% 30.46 in 10.0 mi Calm Calm - N/A   Clear
5:56 AM 12.9 °F - 10.0 °F 88% 30.50 in 10.0 mi Calm Calm - N/A   Clear
6:56 AM 10.9 °F - 8.1 °F 88% 30.56 in 10.0 mi Calm Calm - N/A   Clear
7:56 AM 12.9 °F 6.9 °F 10.0 °F 88% 30.57 in 10.0 mi NNW 3.5 mph - N/A   Clear
8:56 AM 19.9 °F - 15.1 °F 81% 30.56 in 10.0 mi Calm Calm - N/A   Clear
9:56 AM 28.9 °F - 18.0 °F 64% 30.51 in 10.0 mi Calm Calm - N/A   Clear
10:56 AM 37.9 °F 32.7 °F 19.9 °F 48% 30.45 in 10.0 mi WSW 6.9 mph - N/A   Partly Cloudy
11:56 AM 45.0 °F 40.1 °F 21.9 °F 40% 30.39 in 10.0 mi SW 9.2 mph - N/A   Scattered Clouds
12:56 PM 48.0 °F - 23.0 °F 37% 30.35 in 10.0 mi NW 6.9 mph - N/A   Mostly Cloudy
1:56 PM 50.0 °F - 23.0 °F 35% 30.29 in 10.0 mi Variable 5.8 mph - N/A   Clear
2:56 PM 50.0 °F - 24.1 °F 36% 30.27 in 10.0 mi Variable 4.6 mph - N/A   Clear
3:56 PM 53.1 °F - 25.0 °F 34% 30.25 in 10.0 mi SW 9.2 mph - N/A   Partly Cloudy
4:43 PM 51.8 °F - 24.8 °F 35% 30.24 in 10.0 mi West 10.4 mph - N/A   Clear
4:56 PM 52.0 °F - 24.1 °F 34% 30.26 in 10.0 mi West 10.4 mph - N/A   Clear
5:56 PM 50.0 °F - 23.0 °F 35% 30.27 in 10.0 mi West 12.7 mph 20.7 mph N/A   Clear
6:56 PM 46.9 °F - 23.0 °F 39% 30.32 in 10.0 mi West 6.9 mph - N/A   Mostly Cloudy
7:56 PM 46.0 °F 40.6 °F 24.1 °F 42% 30.31 in 10.0 mi West 11.5 mph - N/A   Overcast
8:56 PM 45.0 °F 40.6 °F 24.1 °F 44% 30.28 in 10.0 mi West 8.1 mph - N/A   Overcast
9:56 PM 42.1 °F 38.4 °F 24.1 °F 49% 30.26 in 10.0 mi NW 5.8 mph - N/A   Overcast
10:56 PM 37.9 °F 33.5 °F 24.1 °F 57% 30.24 in 10.0 mi WSW 5.8 mph - N/A   Clear
11:56 PM 35.1 °F 30.1 °F 23.0 °F 61% 30.19 in 10.0 mi NNW 5.8 mph - N/A   Clear